User: anonymous   Login
Location: Possagno
(45.8500°N, 11.8667°E)
Time: 17:02:26
(UTC+00:00)
Language:

Resurs 1-4 Rocket - Orbit

View from above orbital plane
View from above orbital plane
View from above satellite
View from above satellite

Ground track
Ground track

The orbit data is extracted from the following two-line orbital elements,

1 25400U 98043G   21127.79229850 -.00000032  00000-0  46730-5 0  9991
2 25400  98.6384  64.2387 0010984 107.9320 252.3058 14.25475248187222
Epoch (UTC): 07 May 2021 19:00:54
Eccentricity: 0.0010984
inclination: 98.6384°
perigee height: 799 km
apogee height: 815 km
right ascension of ascending node: 64.2387°
argument of perigee: 107.9320°
revolutions per day: 14.25475248
mean anomaly at epoch: 252.3058°
orbit number at epoch: 18722

The dashed part of the orbit path shows where the satellite is in the earth's shadow,  

DLR